Location: Bellflower
(33.8817°N, 118.1170°W)
Time: 22:51:28
(UTC+00:00)

COSMO-SKYMED 1 - Pass Details

Date: 23 November 2020
Orbit: 621 x 623 km, 97.9° (Epoch: 20 January)

Event Time Altitude Azimuth Distance (km) Brightness Sun altitude
Rises 12:50:35 0° 155° (SSE) 2,886 6.5 -21.0°
Reaches altitude 10° 12:52:48 10° 150° (SSE) 1,984 5.7 -20.6°
Maximum altitude 12:56:59 51° 75° (ENE) 789 3.4 -19.7°
Drops below altitude 10° 13:01:11 10° 359° (N) 1,998 5.0 -18.8°
Sets 13:03:25 0° 355° (N) 2,908 5.8 -18.4°
